Hourly Data Report for July 15, 2021

CARIBOU POINT (AUT)
NOVA SCOTIA
Current Station Operator: ECCC - MSC

45°46'00.000" N
62°41'00.000" W
2.40 m
8200774
71415
WBK

Download Data

Hourly Data (July 2021)
Hourly Data Report for July 15, 2021
TIME
LST
Temp Definition
°C
Dew Point Definition
°C
Rel Hum Definition
%
Precip. Amount Definition
mm

Wind Dir Definition
10's deg

Wind Spd Definition
km/h
Visibility Definition
km
Stn Press Definition
kPa
Hmdx Definition


Wind Chill Definition


Weather Definition


00:00 17.7 14.9 84 0.0 19 18   102.24     LegendNANA
01:00 17.5 15.3 87 0.0 18 20   102.19     LegendNANA
02:00 17.4 15.3 87 0.0 18 22   102.15     LegendNANA
03:00 17.3 15.4 89 0.0 18 19   102.13     LegendNANA
04:00 17.3 15.5 89 0.0 20 11   102.12     LegendNANA
05:00 17.4 15.7 90 0.0 19 12   102.12     LegendNANA
06:00 18.9 16.3 85 0.0 18 22   102.10     LegendNANA
07:00 19.0 16.3 84 0.0 19 18   102.06     LegendNANA
08:00 20.3 16.5 79 0.0 19 20   102.02 25   LegendNANA
09:00 20.5 15.0 71 0.0 22 14   102.06     LegendNANA
10:00 21.2 16.3 74 0.0 19 14   101.99 26   LegendNANA
11:00 22.3 17.5 74 0.0 19 26   101.90 28   LegendNANA
12:00 23.5 18.2 72 0.0 20 19   101.88 30   LegendNANA
13:00 24.1 18.7 72 0.0 20 15   101.88 31   LegendNANA
14:00 23.8 18.8 74 0.0 20 17   101.86 30   LegendNANA
15:00 24.1 18.8 73 0.0 21 16   101.85 31   LegendNANA
16:00 24.5 19.4 73 0.0 20 14   101.82 32   LegendNANA
17:00 23.8 19.6 77 0.0 20 13   101.80 31   LegendNANA
18:00 22.4 19.3 83 0.0 20 16   101.79 29   LegendNANA
19:00 21.5 18.9 85 0.0 19 23   101.79 28   LegendNANA
20:00 20.7 18.6 88 0.0 19 18   101.76 27   LegendNANA
21:00 20.1 18.5 90 0.0 19 19   101.77 26   LegendNANA
22:00 20.2 18.8 92 0.0 19 19   101.72 27   LegendNANA
23:00 20.1 18.8 92 0.0 20 14   101.65 27   LegendNANA

Notes on Data Quality.

Legend

  • E = Estimated
  • M = Missing
  • NA = Not Available*
  • [empty] = Indicates an unobserved value
Date modified: